Zurück zum Katalog

ATLAS 5 CENTAUR DEB

AktivHEO
NORAD 57591·DEBRIS·🇺🇸 United States

Gestartet Oct 17, 2018 von Cape Canaveral Space Force Station

Loading…

Nächste Überflüge (nächste 24 Stunden)

TLE

AktuellSource: Space-Track

Epoche: Sep 14, 2026, 09:56 UTC

1 57591U 18079HS  26257.41456639 -.00000162  00000-0  00000-0 0  9992
2 57591  12.7682  58.5164 4290609 274.3699  39.3203  1.80138446 27109

Verfolge ATLAS 5 CENTAUR DEB in Echtzeit mit AllMySat

Download on the App Store